{"data":{"norad_id":62828,"epoch":"2026-05-24T17:56:00.150144Z","epoch_age_seconds":99965,"freshness":"FRESH","line1":"1 62828U 25018Y   26144.74722396  .00019868  00000+0  59766-3 0  9996","line2":"2 62828  53.1594 312.7310 0000759  77.7858 282.3230 15.34396982 75816","mean_motion":15.34396982,"eccentricity":7.59e-5,"inclination_deg":53.1594,"raan_deg":312.731,"arg_perigee_deg":77.7858,"mean_anomaly_deg":282.323,"bstar":0.00059766,"rev_number":7581,"period_min":93.847942670158,"perigee_km":462.19298989876,"apogee_km":463.23143080889,"semimajor_km":6840.8492103538,"source":"CELESTRAK","updated_at":"2026-05-25T13:38:19.777345Z"}}